Time,TemperatureF,DewpointF,PressureIn,WindDirection,WindDirectionDegrees,WindSpeedMPH,WindSpeedGustMPH,Humidity,HourlyPrecipIn,Conditions,Clouds,dailyrainin,SoftwareType,DateUTC
2013-05-12 00:03:00,42.0,29.5,30.09,NW,314,2.1,3.5,61,0.00,RA,,0.00,WeatherDisplay:10.37,2013-05-12 05:03:00,
2013-05-12 00:08:00,41.9,29.8,30.08,WNW,302,2.4,11.5,62,0.00,RA,,0.00,WeatherDisplay:10.37,2013-05-12 05:08:00,
2013-05-12 00:13:00,41.8,29.7,30.09,WNW,292,3.1,5.8,62,0.00,CLR,,0.00,WeatherDisplay:10.37,2013-05-12 05:13:00,
2013-05-12 00:18:00,41.8,29.7,30.09,WNW,283,2.7,6.0,62,0.00,CLR,,0.00,WeatherDisplay:10.37,2013-05-12 05:18:00,
2013-05-12 00:23:00,41.7,29.6,30.09,NW,308,3.2,9.2,62,0.00,CLR,,0.00,WeatherDisplay:10.37,2013-05-12 05:23:00,
2013-05-12 00:28:00,41.5,29.4,30.09,NW,311,2.6,6.9,62,0.00,CLR,,0.00,WeatherDisplay:10.37,2013-05-12 05:28:00,
2013-05-12 00:33:00,41.4,29.7,30.09,NW,323,2.6,4.6,63,0.00,CLR,,0.00,WeatherDisplay:10.37,2013-05-12 05:33:00,
2013-05-12 00:38:00,41.2,29.5,30.09,West,275,0.9,2.3,63,0.00,CLR,,0.00,WeatherDisplay:10.37,2013-05-12 05:38:00,
2013-05-12 00:43:00,40.9,29.3,30.09,NNW,330,0.9,3.5,63,0.00,CLR,,0.00,WeatherDisplay:10.37,2013-05-12 05:43:00,
2013-05-12 00:48:00,40.8,29.6,30.09,WNW,292,0.0,1.2,64,0.00,CLR,,0.00,WeatherDisplay:10.37,2013-05-12 05:48:00,
2013-05-12 00:53:00,40.5,29.3,30.09,WNW,290,0.7,2.3,64,0.00,CLR,,0.00,WeatherDisplay:10.37,2013-05-12 05:53:00,
2013-05-12 00:58:00,40.5,29.3,30.09,WNW,295,1.4,3.5,64,0.00,CLR,,0.00,WeatherDisplay:10.37,2013-05-12 05:58:00,
2013-05-12 01:03:00,40.4,29.6,30.09,WNW,294,0.5,2.3,65,0.00,CLR,,0.00,WeatherDisplay:10.37,2013-05-12 06:03:00,
2013-05-12 01:08:00,40.2,29.0,30.09,NNW,327,2.0,3.5,64,0.00,CLR,,0.00,WeatherDisplay:10.37,2013-05-12 06:08:00,
2013-05-12 01:13:00,40.5,28.5,30.08,WNW,290,1.8,3.5,62,0.00,CLR,,0.00,WeatherDisplay:10.37,2013-05-12 06:13:00,
2013-05-12 01:18:00,40.8,28.8,30.09,NW,304,1.5,3.5,62,0.00,CLR,,0.00,WeatherDisplay:10.37,2013-05-12 06:18:00,
2013-05-12 01:23:00,40.7,28.3,30.09,WNW,285,1.9,4.6,61,0.00,CLR,,0.00,WeatherDisplay:10.37,2013-05-12 06:23:00,
2013-05-12 01:28:00,40.8,28.4,30.09,WNW,298,2.6,4.6,61,0.00,CLR,,0.00,WeatherDisplay:10.37,2013-05-12 06:28:00,
2013-05-12 01:33:00,40.7,28.3,30.09,WNW,290,1.6,3.5,61,0.00,CLR,,0.00,WeatherDisplay:10.37,2013-05-12 06:33:00,
2013-05-12 01:38:00,40.4,28.4,30.09,West,261,0.4,2.3,62,0.00,CLR,,0.00,WeatherDisplay:10.37,2013-05-12 06:38:00,
2013-05-12 01:43:00,40.0,28.4,30.09,West,271,0.5,2.3,63,0.00,CLR,,0.00,WeatherDisplay:10.37,2013-05-12 06:43:00,
2013-05-12 01:48:00,39.6,28.8,30.09,WNW,288,0.1,1.2,65,0.00,CLR,,0.00,WeatherDisplay:10.37,2013-05-12 06:48:00,
2013-05-12 01:53:00,39.0,28.6,30.08,West,264,0.7,2.3,66,0.00,CLR,,0.00,WeatherDisplay:10.37,2013-05-12 06:53:00,
2013-05-12 01:58:00,38.7,28.7,30.08,WSW,253,1.3,2.3,67,0.00,CLR,,0.00,WeatherDisplay:10.37,2013-05-12 06:58:00,
2013-05-12 02:03:00,38.4,28.8,30.09,West,261,1.1,2.3,68,0.00,CLR,,0.00,WeatherDisplay:10.37,2013-05-12 07:03:00,
2013-05-12 02:08:00,37.9,28.6,30.08,West,265,1.3,3.5,69,0.00,CLR,,0.00,WeatherDisplay:10.37,2013-05-12 07:08:00,
2013-05-12 02:13:00,37.9,28.6,30.09,West,262,0.8,1.2,69,0.00,CLR,,0.00,WeatherDisplay:10.37,2013-05-12 07:13:00,
2013-05-12 02:18:00,37.9,28.6,30.09,West,272,0.1,2.3,69,0.00,CLR,,0.00,WeatherDisplay:10.37,2013-05-12 07:18:00,
2013-05-12 02:23:00,37.8,28.5,30.09,West,269,0.7,2.3,69,0.00,CLR,,0.00,WeatherDisplay:10.37,2013-05-12 07:23:00,
2013-05-12 02:28:00,37.7,28.8,30.09,West,267,1.2,3.5,70,0.00,CLR,,0.00,WeatherDisplay:10.37,2013-05-12 07:28:00,
2013-05-12 02:33:00,37.7,28.8,30.09,WSW,256,0.4,2.0,70,0.00,CLR,,0.00,WeatherDisplay:10.37,2013-05-12 07:33:00,
2013-05-12 02:38:00,37.6,28.7,30.09,WSW,251,1.4,3.5,70,0.00,CLR,,0.00,WeatherDisplay:10.37,2013-05-12 07:38:00,
2013-05-12 02:43:00,37.4,28.9,30.09,WSW,254,0.9,3.5,71,0.00,CLR,,0.00,WeatherDisplay:10.37,2013-05-12 07:43:00,
2013-05-12 02:48:00,37.4,28.9,30.09,West,269,1.7,3.5,71,0.00,CLR,,0.00,WeatherDisplay:10.37,2013-05-12 07:48:00,
2013-05-12 02:53:00,37.7,29.1,30.09,West,270,0.7,2.3,71,0.00,CLR,,0.00,WeatherDisplay:10.37,2013-05-12 07:53:00,
2013-05-12 02:58:00,38.1,28.8,30.09,WNW,286,2.0,3.5,69,0.00,CLR,,0.00,WeatherDisplay:10.37,2013-05-12 07:58:00,
2013-05-12 03:03:00,38.5,28.5,30.09,West,269,1.7,3.5,67,0.00,CLR,,0.00,WeatherDisplay:10.37,2013-05-12 08:03:00,
2013-05-12 03:08:00,38.6,28.6,30.09,WSW,252,2.3,3.5,67,0.00,CLR,,0.00,WeatherDisplay:10.37,2013-05-12 08:08:00,
2013-05-12 03:13:00,38.7,28.3,30.09,WNW,297,1.0,3.5,66,0.00,CLR,,0.00,WeatherDisplay:10.37,2013-05-12 08:13:00,
2013-05-12 03:18:00,38.6,28.2,30.09,WNW,284,1.7,3.5,66,0.00,CLR,,0.00,WeatherDisplay:10.37,2013-05-12 08:18:00,
2013-05-12 03:23:00,38.7,28.3,30.09,WSW,246,1.1,2.3,66,0.00,CLR,,0.00,WeatherDisplay:10.37,2013-05-12 08:23:00,
2013-05-12 03:28:00,38.8,28.4,30.09,West,279,1.5,3.5,66,0.00,CLR,,0.00,WeatherDisplay:10.37,2013-05-12 08:28:00,
2013-05-12 03:33:00,38.8,28.4,30.09,West,269,2.4,3.5,66,0.00,CLR,,0.00,WeatherDisplay:10.37,2013-05-12 08:33:00,
2013-05-12 03:38:00,38.8,28.0,30.09,West,263,1.7,3.5,65,0.00,CLR,,0.00,WeatherDisplay:10.37,2013-05-12 08:38:00,
2013-05-12 03:43:00,38.9,28.1,30.09,WNW,282,1.6,3.5,65,0.00,CLR,,0.00,WeatherDisplay:10.37,2013-05-12 08:43:00,
2013-05-12 03:48:00,38.8,28.0,30.09,West,277,2.2,8.1,65,0.00,CLR,,0.00,WeatherDisplay:10.37,2013-05-12 08:48:00,
2013-05-12 03:53:00,38.8,28.0,30.09,West,269,2.4,3.5,65,0.00,CLR,,0.00,WeatherDisplay:10.37,2013-05-12 08:53:00,
2013-05-12 03:58:00,38.7,28.3,30.10,WNW,287,1.0,2.3,66,0.00,CLR,,0.00,WeatherDisplay:10.37,2013-05-12 08:58:00,
2013-05-12 04:03:00,38.6,28.2,30.10,West,259,1.7,4.6,66,0.00,CLR,,0.00,WeatherDisplay:10.37,2013-05-12 09:03:00,
2013-05-12 04:08:00,38.6,28.2,30.09,WNW,293,1.9,3.5,66,0.00,CLR,,0.00,WeatherDisplay:10.37,2013-05-12 09:08:00,
2013-05-12 04:13:00,38.6,28.2,30.10,WNW,293,1.2,3.5,66,0.00,CLR,,0.00,WeatherDisplay:10.37,2013-05-12 09:13:00,
2013-05-12 04:18:00,38.6,28.2,30.10,NNW,338,1.7,3.5,66,0.00,CLR,,0.00,WeatherDisplay:10.37,2013-05-12 09:18:00,
2013-05-12 04:23:00,38.6,27.8,30.10,West,261,1.2,4.0,65,0.00,CLR,,0.00,WeatherDisplay:10.37,2013-05-12 09:23:00,
2013-05-12 04:28:00,38.6,28.2,30.10,West,265,1.9,4.0,66,0.00,CLR,,0.00,WeatherDisplay:10.37,2013-05-12 09:28:00,
2013-05-12 04:33:00,38.6,27.8,30.10,West,281,1.8,4.6,65,0.00,CLR,,0.00,WeatherDisplay:10.37,2013-05-12 09:33:00,
2013-05-12 04:38:00,38.7,27.9,30.10,WNW,300,3.6,6.9,65,0.00,CLR,,0.00,WeatherDisplay:10.37,2013-05-12 09:38:00,
2013-05-12 04:43:00,38.9,27.8,30.10,WNW,295,2.0,3.5,64,0.00,CLR,,0.00,WeatherDisplay:10.37,2013-05-12 09:43:00,
2013-05-12 04:48:00,38.8,27.7,30.10,WNW,292,2.7,4.6,64,0.00,CLR,,0.00,WeatherDisplay:10.37,2013-05-12 09:48:00,
2013-05-12 04:53:00,38.9,27.8,30.10,West,274,2.0,3.5,64,0.00,CLR,,0.00,WeatherDisplay:10.37,2013-05-12 09:53:00,
2013-05-12 04:58:00,38.8,27.7,30.10,NW,306,2.1,5.0,64,0.00,CLR,,0.00,WeatherDisplay:10.37,2013-05-12 09:58:00,
2013-05-12 05:03:00,38.5,27.7,30.10,NW,305,2.9,4.0,65,0.00,CLR,,0.00,WeatherDisplay:10.37,2013-05-12 10:03:00,
2013-05-12 05:08:00,38.4,27.7,30.10,WNW,290,2.8,4.6,65,0.00,CLR,,0.00,WeatherDisplay:10.37,2013-05-12 10:08:00,
2013-05-12 05:13:00,38.2,27.5,30.10,NW,311,2.0,3.5,65,0.00,CLR,,0.00,WeatherDisplay:10.37,2013-05-12 10:13:00,
2013-05-12 05:18:00,38.0,27.6,30.10,WNW,291,4.3,9.2,66,0.00,CLR,,0.00,WeatherDisplay:10.37,2013-05-12 10:18:00,
2013-05-12 05:23:00,38.0,27.6,30.10,WNW,298,2.8,6.9,66,0.00,CLR,,0.00,WeatherDisplay:10.37,2013-05-12 10:23:00,
2013-05-12 05:28:00,37.9,27.5,30.10,NW,312,2.7,6.9,66,0.00,CLR,,0.00,WeatherDisplay:10.37,2013-05-12 10:28:00,
2013-05-12 05:33:00,37.8,27.8,30.11,NNW,338,3.2,5.0,67,0.00,CLR,,0.00,WeatherDisplay:10.37,2013-05-12 10:33:00,
2013-05-12 05:38:00,37.8,27.8,30.11,NW,310,2.0,8.1,67,0.00,CLR,,0.00,WeatherDisplay:10.37,2013-05-12 10:38:00,
2013-05-12 05:43:00,37.7,27.7,30.11,West,281,1.7,3.5,67,0.00,CLR,,0.00,WeatherDisplay:10.37,2013-05-12 10:43:00,
2013-05-12 05:48:00,37.7,27.7,30.11,WNW,286,1.4,3.5,67,0.00,CLR,,0.00,WeatherDisplay:10.37,2013-05-12 10:48:00,
2013-05-12 05:53:00,37.5,27.9,30.11,NNW,338,2.5,4.0,68,0.00,CLR,,0.00,WeatherDisplay:10.37,2013-05-12 10:53:00,
2013-05-12 05:58:00,37.5,27.9,30.11,WNW,302,1.8,3.5,68,0.00,CLR,,0.00,WeatherDisplay:10.37,2013-05-12 10:58:00,
2013-05-12 06:03:00,37.5,27.9,30.11,NW,304,1.8,4.6,68,0.00,CLR,,0.00,WeatherDisplay:10.37,2013-05-12 11:03:00,
2013-05-12 06:08:00,37.6,28.0,30.12,WNW,294,1.4,3.5,68,0.00,CLR,,0.00,WeatherDisplay:10.37,2013-05-12 11:08:00,
2013-05-12 06:13:00,37.5,28.2,30.12,WNW,297,1.0,1.2,69,0.00,CLR,,0.00,WeatherDisplay:10.37,2013-05-12 11:13:00,
2013-05-12 06:18:00,37.5,28.2,30.12,WNW,294,1.4,3.5,69,0.00,CLR,,0.00,WeatherDisplay:10.37,2013-05-12 11:18:00,
2013-05-12 06:23:00,37.7,28.4,30.12,WNW,288,1.8,4.6,69,0.00,CLR,,0.00,WeatherDisplay:10.37,2013-05-12 11:23:00,
2013-05-12 06:28:00,37.7,28.8,30.12,WNW,296,1.2,4.0,70,0.00,CLR,,0.00,WeatherDisplay:10.37,2013-05-12 11:28:00,
2013-05-12 06:33:00,37.9,28.6,30.12,West,279,2.7,8.1,69,0.00,CLR,,0.00,WeatherDisplay:10.37,2013-05-12 11:33:00,
2013-05-12 06:38:00,38.2,28.9,30.12,NW,323,2.2,5.0,69,0.00,CLR,,0.00,WeatherDisplay:10.37,2013-05-12 11:38:00,
2013-05-12 06:43:00,38.4,29.1,30.12,NW,324,2.5,5.8,69,0.00,CLR,,0.00,WeatherDisplay:10.37,2013-05-12 11:43:00,
2013-05-12 06:48:00,38.6,29.3,30.13,WNW,296,2.6,6.9,69,0.00,CLR,,0.00,WeatherDisplay:10.37,2013-05-12 11:48:00,
2013-05-12 06:53:00,38.8,29.5,30.13,WNW,301,0.8,3.5,69,0.00,CLR,,0.00,WeatherDisplay:10.37,2013-05-12 11:53:00,
2013-05-12 06:58:00,39.1,29.8,30.13,NW,319,3.2,8.1,69,0.00,CLR,,0.00,WeatherDisplay:10.37,2013-05-12 11:58:00,
2013-05-12 07:03:00,39.3,30.0,30.13,NNW,335,2.6,5.8,69,0.00,CLR,,0.00,WeatherDisplay:10.37,2013-05-12 12:03:00,
2013-05-12 07:08:00,39.5,29.8,30.13,NNW,327,2.5,4.0,68,0.00,CLR,,0.00,WeatherDisplay:10.37,2013-05-12 12:08:00,
2013-05-12 07:13:00,39.8,29.7,30.13,WNW,282,3.9,8.1,67,0.00,CLR,,0.00,WeatherDisplay:10.37,2013-05-12 12:13:00,
2013-05-12 07:18:00,40.0,29.9,30.13,WSW,250,3.0,11.5,67,0.00,CLR,,0.00,WeatherDisplay:10.37,2013-05-12 12:18:00,
2013-05-12 07:23:00,40.1,29.6,30.13,NW,322,3.9,10.4,66,0.00,CLR,,0.00,WeatherDisplay:10.37,2013-05-12 12:23:00,
2013-05-12 07:28:00,40.4,29.9,30.13,West,274,3.4,5.8,66,0.00,CLR,,0.00,WeatherDisplay:10.37,2013-05-12 12:28:00,
2013-05-12 07:33:00,40.6,29.7,30.13,West,278,5.0,8.0,65,0.00,CLR,,0.00,WeatherDisplay:10.37,2013-05-12 12:33:00,
2013-05-12 07:38:00,40.9,30.4,30.13,NW,319,6.0,8.1,66,0.00,CLR,,0.00,WeatherDisplay:10.37,2013-05-12 12:38:00,
2013-05-12 07:43:00,41.1,30.2,30.13,NW,309,6.9,10.4,65,0.00,CLR,,0.00,WeatherDisplay:10.37,2013-05-12 12:43:00,
2013-05-12 07:48:00,41.3,30.8,30.14,NNW,330,2.3,3.5,66,0.00,CLR,,0.00,WeatherDisplay:10.37,2013-05-12 12:48:00,
2013-05-12 07:53:00,41.5,30.6,30.14,NNW,327,4.5,9.2,65,0.00,CLR,,0.00,WeatherDisplay:10.37,2013-05-12 12:53:00,
2013-05-12 07:58:00,41.8,30.5,30.14,NW,320,7.5,10.4,64,0.00,CLR,,0.00,WeatherDisplay:10.37,2013-05-12 12:58:00,
2013-05-12 08:03:00,42.3,30.6,30.14,West,281,6.1,10.4,63,0.00,CLR,,0.00,WeatherDisplay:10.37,2013-05-12 13:03:00,
2013-05-12 08:08:00,42.7,30.2,30.14,NW,323,6.0,10.4,61,0.00,CLR,,0.00,WeatherDisplay:10.37,2013-05-12 13:08:00,
2013-05-12 08:13:00,42.8,29.9,30.14,NNW,331,6.4,15.0,60,0.00,CLR,,0.00,WeatherDisplay:10.37,2013-05-12 13:13:00,
2013-05-12 08:18:00,43.1,29.3,30.14,NW,325,7.2,17.3,58,0.00,CLR,,0.00,WeatherDisplay:10.37,2013-05-12 13:18:00,
2013-05-12 08:23:00,43.4,29.6,30.15,NW,325,7.6,12.0,58,0.00,CLR,,0.00,WeatherDisplay:10.37,2013-05-12 13:23:00,
2013-05-12 08:28:00,43.4,29.2,30.15,NNW,336,12.0,18.4,57,0.00,CLR,,0.00,WeatherDisplay:10.37,2013-05-12 13:28:00,
2013-05-12 08:33:00,43.3,28.6,30.15,NW,325,8.2,13.8,56,0.00,CLR,,0.00,WeatherDisplay:10.37,2013-05-12 13:33:00,
2013-05-12 08:38:00,44.1,30.3,30.15,NNW,328,7.1,11.5,58,0.00,CLR,,0.00,WeatherDisplay:10.37,2013-05-12 13:38:00,
2013-05-12 08:43:00,44.8,30.0,30.15,NW,322,9.5,15.0,56,0.00,CLR,,0.00,WeatherDisplay:10.37,2013-05-12 13:43:00,
2013-05-12 08:48:00,44.6,29.4,30.15,NW,319,6.9,12.7,55,0.00,CLR,,0.00,WeatherDisplay:10.37,2013-05-12 13:48:00,
2013-05-12 08:53:00,45.3,29.2,30.15,WNW,298,7.6,13.8,53,0.00,CLR,,0.00,WeatherDisplay:10.37,2013-05-12 13:53:00,
2013-05-12 08:58:00,45.0,29.8,30.15,NW,315,5.4,13.8,55,0.00,CLR,,0.00,WeatherDisplay:10.37,2013-05-12 13:58:00,
2013-05-12 09:03:00,45.0,28.4,30.15,NW,323,4.3,11.5,52,0.00,CLR,,0.00,WeatherDisplay:10.37,2013-05-12 14:03:00,
2013-05-12 09:08:00,45.2,30.4,30.15,WNW,290,6.3,9.2,56,0.00,CLR,,0.00,WeatherDisplay:10.37,2013-05-12 14:08:00,
2013-05-12 09:13:00,46.0,30.3,30.15,WNW,283,7.2,12.7,54,0.00,CLR,,0.00,WeatherDisplay:10.37,2013-05-12 14:13:00,
2013-05-12 09:18:00,45.2,30.0,30.15,NW,305,4.9,7.0,55,0.00,CLR,,0.00,WeatherDisplay:10.37,2013-05-12 14:18:00,
2013-05-12 09:23:00,45.9,30.2,30.15,WNW,300,3.3,6.9,54,0.00,CLR,,0.00,WeatherDisplay:10.37,2013-05-12 14:23:00,
2013-05-12 09:28:00,45.8,30.1,30.15,WNW,286,4.9,8.1,54,0.00,CLR,,0.00,WeatherDisplay:10.37,2013-05-12 14:28:00,
2013-05-12 09:33:00,45.5,29.8,30.15,West,267,4.8,10.4,54,0.00,CLR,,0.00,WeatherDisplay:10.37,2013-05-12 14:33:00,
2013-05-12 09:38:00,46.3,30.5,30.15,NNW,333,5.5,10.4,54,0.00,CLR,,0.00,WeatherDisplay:10.37,2013-05-12 14:38:00,
2013-05-12 09:43:00,46.4,29.7,30.15,NW,310,9.8,13.8,52,0.00,CLR,,0.00,WeatherDisplay:10.37,2013-05-12 14:43:00,
2013-05-12 09:48:00,46.1,29.9,30.15,NW,305,5.9,10.0,53,0.00,CLR,,0.00,WeatherDisplay:10.37,2013-05-12 14:48:00,
2013-05-12 09:53:00,47.4,32.0,30.15,WNW,284,4.5,10.4,55,0.00,CLR,,0.00,WeatherDisplay:10.37,2013-05-12 14:53:00,
2013-05-12 09:58:00,46.9,30.2,30.15,West,269,4.4,8.1,52,0.00,CLR,,0.00,WeatherDisplay:10.37,2013-05-12 14:58:00,
2013-05-12 10:03:00,46.1,30.4,30.15,NW,310,4.5,6.9,54,0.00,CLR,,0.00,WeatherDisplay:10.37,2013-05-12 15:03:00,
2013-05-12 10:08:00,46.7,31.8,30.16,NNW,344,4.9,11.5,56,0.00,CLR,,0.00,WeatherDisplay:10.37,2013-05-12 15:08:00,
2013-05-12 10:13:00,46.9,30.6,30.16,West,277,6.3,11.5,53,0.00,CLR,,0.00,WeatherDisplay:10.37,2013-05-12 15:13:00,
2013-05-12 10:18:00,47.2,31.4,30.16,West,277,4.6,5.8,54,0.00,CLR,,0.00,WeatherDisplay:10.37,2013-05-12 15:18:00,
2013-05-12 10:23:00,47.4,31.6,30.16,NNW,329,3.2,5.8,54,0.00,CLR,,0.00,WeatherDisplay:10.37,2013-05-12 15:23:00,
2013-05-12 10:28:00,47.3,30.5,30.16,WNW,289,4.5,6.9,52,0.00,CLR,,0.00,WeatherDisplay:10.37,2013-05-12 15:28:00,
2013-05-12 10:33:00,47.6,33.1,30.16,WNW,302,3.9,8.0,57,0.00,CLR,,0.00,WeatherDisplay:10.37,2013-05-12 15:33:00,
2013-05-12 10:38:00,48.1,31.8,30.16,WSW,253,4.4,5.8,53,0.00,CLR,,0.00,WeatherDisplay:10.37,2013-05-12 15:38:00,
2013-05-12 10:43:00,48.3,33.8,30.16,WNW,290,4.8,7.0,57,0.00,CLR,,0.00,WeatherDisplay:10.37,2013-05-12 15:43:00,
2013-05-12 10:48:00,48.4,32.0,30.16,NW,311,7.4,15.0,53,0.00,CLR,,0.00,WeatherDisplay:10.37,2013-05-12 15:48:00,
2013-05-12 10:53:00,48.5,31.7,30.15,WNW,289,5.8,9.2,52,0.00,CLR,,0.00,WeatherDisplay:10.37,2013-05-12 15:53:00,
2013-05-12 10:58:00,49.0,31.6,30.15,SW,235,2.5,12.0,51,0.00,CLR,,0.00,WeatherDisplay:10.37,2013-05-12 15:58:00,
2013-05-12 11:03:00,49.4,31.5,30.15,NW,317,4.3,11.5,50,0.00,CLR,,0.00,WeatherDisplay:10.37,2013-05-12 16:03:00,
2013-05-12 11:08:00,49.2,32.8,30.15,WSW,255,5.2,10.4,53,0.00,CLR,,0.00,WeatherDisplay:10.37,2013-05-12 16:08:00,
2013-05-12 11:13:00,49.4,32.5,30.15,NNE,32,3.1,6.9,52,0.00,CLR,,0.00,WeatherDisplay:10.37,2013-05-12 16:13:00,
2013-05-12 11:18:00,49.1,31.7,30.16,West,269,5.7,10.4,51,0.00,CLR,,0.00,WeatherDisplay:10.37,2013-05-12 16:18:00,
2013-05-12 11:23:00,49.4,32.5,30.15,SW,229,3.2,5.8,52,0.00,CLR,,0.00,WeatherDisplay:10.37,2013-05-12 16:23:00,
2013-05-12 11:28:00,50.3,33.8,30.15,West,269,4.7,9.2,53,0.00,CLR,,0.00,WeatherDisplay:10.37,2013-05-12 16:28:00,
2013-05-12 11:33:00,50.3,32.4,30.15,SSW,199,2.9,5.0,50,0.00,CLR,,0.00,WeatherDisplay:10.37,2013-05-12 16:33:00,
2013-05-12 11:38:00,50.7,32.7,30.15,West,279,5.2,11.5,50,0.00,CLR,,0.00,WeatherDisplay:10.37,2013-05-12 16:38:00,
2013-05-12 11:43:00,50.6,32.1,30.15,WNW,293,3.1,4.6,49,0.00,CLR,,0.00,WeatherDisplay:10.37,2013-05-12 16:43:00,
2013-05-12 11:48:00,50.1,31.2,30.15,SSW,209,4.8,6.9,48,0.00,CLR,,0.00,WeatherDisplay:10.37,2013-05-12 16:48:00,
2013-05-12 11:53:00,50.3,32.4,30.15,WSW,253,4.2,11.5,50,0.00,CLR,,0.00,WeatherDisplay:10.37,2013-05-12 16:53:00,
2013-05-12 11:58:00,51.2,34.2,30.15,West,271,7.3,12.7,52,0.00,CLR,,0.00,WeatherDisplay:10.37,2013-05-12 16:58:00,
2013-05-12 12:03:00,50.8,32.3,30.15,WSW,257,7.3,10.0,49,0.00,CLR,,0.00,WeatherDisplay:10.37,2013-05-12 17:03:00,
2013-05-12 12:08:00,51.0,31.5,30.15,WSW,240,6.5,12.0,47,0.00,CLR,,0.00,WeatherDisplay:10.37,2013-05-12 17:08:00,
2013-05-12 12:13:00,51.4,32.9,30.14,NW,315,6.6,10.4,49,0.00,CLR,,0.00,WeatherDisplay:10.37,2013-05-12 17:13:00,
2013-05-12 12:18:00,51.7,31.0,30.14,WNW,284,5.4,8.1,45,0.00,CLR,,0.00,WeatherDisplay:10.37,2013-05-12 17:18:00,
2013-05-12 12:23:00,51.2,28.9,30.14,NW,322,2.3,10.4,42,0.00,CLR,,0.00,WeatherDisplay:10.37,2013-05-12 17:23:00,
2013-05-12 12:28:00,51.3,30.1,30.14,WNW,289,7.8,11.5,44,0.00,CLR,,0.00,WeatherDisplay:10.37,2013-05-12 17:28:00,
2013-05-12 12:33:00,52.2,29.2,30.15,NNW,338,6.2,8.1,41,0.00,CLR,,0.00,WeatherDisplay:10.37,2013-05-12 17:33:00,
2013-05-12 12:38:00,52.1,30.3,30.14,WNW,294,3.4,9.2,43,0.00,CLR,,0.00,WeatherDisplay:10.37,2013-05-12 17:38:00,
2013-05-12 12:43:00,52.5,28.2,30.14,NW,319,7.0,12.7,39,0.00,CLR,,0.00,WeatherDisplay:10.37,2013-05-12 17:43:00,
2013-05-12 12:48:00,52.3,29.3,30.14,NNW,331,4.3,6.9,41,0.00,CLR,,0.00,WeatherDisplay:10.37,2013-05-12 17:48:00,
2013-05-12 12:53:00,52.4,30.0,30.14,WNW,289,6.9,11.5,42,0.00,CLR,,0.00,WeatherDisplay:10.37,2013-05-12 17:53:00,
2013-05-12 12:58:00,52.5,27.6,30.14,NW,312,4.9,11.5,38,0.00,CLR,,0.00,WeatherDisplay:10.37,2013-05-12 17:58:00,
2013-05-12 13:03:00,52.2,28.6,30.14,West,264,4.9,6.0,40,0.00,CLR,,0.00,WeatherDisplay:10.37,2013-05-12 18:03:00,
2013-05-12 13:08:00,52.9,26.6,30.14,NW,322,6.2,11.5,36,0.00,CLR,,0.00,WeatherDisplay:10.37,2013-05-12 18:08:00,
2013-05-12 13:13:00,52.8,29.7,30.14,West,273,9.1,11.5,41,0.00,CLR,,0.00,WeatherDisplay:10.37,2013-05-12 18:13:00,
2013-05-12 13:18:00,53.0,26.7,30.14,NNW,330,4.4,8.1,36,0.00,CLR,,0.00,WeatherDisplay:10.37,2013-05-12 18:18:00,
2013-05-12 13:23:00,53.3,28.9,30.14,NW,313,6.6,12.7,39,0.00,CLR,,0.00,WeatherDisplay:10.37,2013-05-12 18:23:00,
2013-05-12 13:28:00,53.0,28.0,30.14,NW,320,5.8,11.5,38,0.00,CLR,,0.00,WeatherDisplay:10.37,2013-05-12 18:28:00,
2013-05-12 13:33:00,53.3,28.9,30.14,NNW,332,6.9,13.8,39,0.00,CLR,,0.00,WeatherDisplay:10.37,2013-05-12 18:33:00,
2013-05-12 13:38:00,53.4,29.7,30.14,WNW,300,6.2,12.7,40,0.00,CLR,,0.00,WeatherDisplay:10.37,2013-05-12 18:38:00,
2013-05-12 13:43:00,53.7,28.0,30.14,WNW,288,7.6,10.4,37,0.00,CLR,,0.00,WeatherDisplay:10.37,2013-05-12 18:43:00,
2013-05-12 13:48:00,53.7,28.7,30.14,WNW,300,2.6,5.0,38,0.00,CLR,,0.00,WeatherDisplay:10.37,2013-05-12 18:48:00,
2013-05-12 13:53:00,54.2,31.0,30.13,WSW,253,3.8,6.0,41,0.00,CLR,,0.00,WeatherDisplay:10.37,2013-05-12 18:53:00,
2013-05-12 13:58:00,54.0,28.3,30.14,NW,319,7.4,10.4,37,0.00,CLR,,0.00,WeatherDisplay:10.37,2013-05-12 18:58:00,
2013-05-12 14:03:00,54.1,29.0,30.13,WNW,294,3.4,9.2,38,0.00,CLR,,0.00,WeatherDisplay:10.37,2013-05-12 19:03:00,
2013-05-12 14:08:00,54.1,29.0,30.14,WNW,297,3.2,9.2,38,0.00,CLR,,0.00,WeatherDisplay:10.37,2013-05-12 19:08:00,
2013-05-12 14:13:00,54.2,29.8,30.13,WNW,290,6.6,11.5,39,0.00,CLR,,0.00,WeatherDisplay:10.37,2013-05-12 19:13:00,
2013-05-12 14:18:00,54.2,27.1,30.13,West,261,5.6,8.1,35,0.00,CLR,,0.00,WeatherDisplay:10.37,2013-05-12 19:18:00,
2013-05-12 14:23:00,55.2,32.5,30.13,WSW,238,5.4,11.5,42,0.00,CLR,,0.00,WeatherDisplay:10.37,2013-05-12 19:23:00,
2013-05-12 14:28:00,54.9,31.6,30.13,WNW,288,4.6,8.1,41,0.00,CLR,,0.00,WeatherDisplay:10.37,2013-05-12 19:28:00,
2013-05-12 14:33:00,54.2,29.8,30.13,West,267,5.1,9.2,39,0.00,CLR,,0.00,WeatherDisplay:10.37,2013-05-12 19:33:00,
2013-05-12 14:38:00,54.8,30.9,30.13,SW,215,9.6,18.0,40,0.00,CLR,,0.00,WeatherDisplay:10.37,2013-05-12 19:38:00,
2013-05-12 14:43:00,54.5,27.4,30.13,West,264,6.3,13.0,35,0.00,CLR,,0.00,WeatherDisplay:10.37,2013-05-12 19:43:00,
2013-05-12 14:48:00,54.8,29.0,30.12,WSW,247,6.2,8.1,37,0.00,CLR,,0.00,WeatherDisplay:10.37,2013-05-12 19:48:00,
2013-05-12 14:53:00,54.6,28.8,30.12,WNW,298,2.6,4.6,37,0.00,CLR,,0.00,WeatherDisplay:10.37,2013-05-12 19:53:00,
2013-05-12 14:58:00,54.6,27.5,30.12,West,273,3.1,4.6,35,0.00,CLR,,0.00,WeatherDisplay:10.37,2013-05-12 19:58:00,
2013-05-12 15:03:00,55.0,28.5,30.12,WNW,291,2.7,4.6,36,0.00,CLR,,0.00,WeatherDisplay:10.37,2013-05-12 20:03:00,
2013-05-12 15:08:00,55.1,28.6,30.12,WNW,284,2.8,7.0,36,0.00,CLR,,0.00,WeatherDisplay:10.37,2013-05-12 20:08:00,
2013-05-12 15:13:00,54.9,30.4,30.12,West,259,2.1,3.0,39,0.00,CLR,,0.00,WeatherDisplay:10.37,2013-05-12 20:13:00,
2013-05-12 15:18:00,55.5,29.6,30.11,West,277,4.8,5.8,37,0.00,CLR,,0.00,WeatherDisplay:10.37,2013-05-12 20:18:00,
2013-05-12 15:23:00,55.0,28.5,30.11,NW,304,2.8,3.5,36,0.00,CLR,,0.00,WeatherDisplay:10.37,2013-05-12 20:23:00,
2013-05-12 15:28:00,55.1,27.9,30.11,NNW,338,4.2,9.2,35,0.00,CLR,,0.00,WeatherDisplay:10.37,2013-05-12 20:28:00,
2013-05-12 15:33:00,55.0,26.4,30.11,NW,309,6.4,11.5,33,0.00,CLR,,0.00,WeatherDisplay:10.37,2013-05-12 20:33:00,
2013-05-12 15:38:00,55.7,28.4,30.11,NNW,334,3.5,6.0,35,0.00,CLR,,0.00,WeatherDisplay:10.37,2013-05-12 20:38:00,
2013-05-12 15:43:00,55.5,26.8,30.11,West,276,5.0,8.1,33,0.00,CLR,,0.00,WeatherDisplay:10.37,2013-05-12 20:43:00,
2013-05-12 15:48:00,55.4,28.9,30.11,NW,312,4.1,9.0,36,0.00,CLR,,0.00,WeatherDisplay:10.37,2013-05-12 20:48:00,
2013-05-12 15:53:00,55.5,28.3,30.11,West,261,6.1,13.8,35,0.00,CLR,,0.00,WeatherDisplay:10.37,2013-05-12 20:53:00,
2013-05-12 15:58:00,55.6,29.0,30.11,West,279,4.2,11.5,36,0.00,CLR,,0.00,WeatherDisplay:10.37,2013-05-12 20:58:00,
2013-05-12 16:03:00,55.2,28.7,30.11,WNW,282,3.3,6.9,36,0.00,CLR,,0.00,WeatherDisplay:10.37,2013-05-12 21:03:00,
2013-05-12 16:08:00,54.6,27.5,30.11,WSW,245,4.0,9.0,35,0.00,CLR,,0.00,WeatherDisplay:10.37,2013-05-12 21:08:00,
2013-05-12 16:13:00,55.3,28.8,30.10,NW,315,6.2,11.5,36,0.00,CLR,,0.00,WeatherDisplay:10.37,2013-05-12 21:13:00,
2013-05-12 16:18:00,55.4,27.5,30.10,West,281,3.9,9.2,34,0.00,CLR,,0.00,WeatherDisplay:10.37,2013-05-12 21:18:00,
2013-05-12 16:23:00,55.0,25.6,30.10,West,271,2.6,5.8,32,0.00,CLR,,0.00,WeatherDisplay:10.37,2013-05-12 21:23:00,
2013-05-12 16:28:00,54.8,27.6,30.10,WSW,257,3.9,9.0,35,0.00,CLR,,0.00,WeatherDisplay:10.37,2013-05-12 21:28:00,
2013-05-12 16:33:00,55.8,29.2,30.09,WNW,294,5.2,8.1,36,0.00,CLR,,0.00,WeatherDisplay:10.37,2013-05-12 21:33:00,
2013-05-12 16:38:00,55.9,26.4,30.10,WNW,292,9.0,16.1,32,0.00,CLR,,0.00,WeatherDisplay:10.37,2013-05-12 21:38:00,
2013-05-12 16:43:00,55.1,26.5,30.10,West,271,5.3,9.2,33,0.00,CLR,,0.00,WeatherDisplay:10.37,2013-05-12 21:43:00,
2013-05-12 16:48:00,55.5,26.8,30.10,NW,310,5.2,11.5,33,0.00,CLR,,0.00,WeatherDisplay:10.37,2013-05-12 21:48:00,
2013-05-12 16:53:00,55.3,28.8,30.10,WNW,300,3.9,11.5,36,0.00,CLR,,0.00,WeatherDisplay:10.37,2013-05-12 21:53:00,
2013-05-12 16:58:00,55.7,27.0,30.09,NW,308,1.8,5.8,33,0.00,CLR,,0.00,WeatherDisplay:10.37,2013-05-12 21:58:00,
2013-05-12 17:03:00,55.4,27.5,30.10,West,269,4.9,11.5,34,0.00,CLR,,0.00,WeatherDisplay:10.37,2013-05-12 22:03:00,
2013-05-12 17:08:00,54.9,27.7,30.09,WNW,284,3.0,5.8,35,0.00,CLR,,0.00,WeatherDisplay:10.37,2013-05-12 22:08:00,
2013-05-12 17:13:00,55.5,27.6,30.09,West,269,3.5,11.5,34,0.00,CLR,,0.00,WeatherDisplay:10.37,2013-05-12 22:13:00,
2013-05-12 17:18:00,55.4,26.7,30.09,NNW,338,1.8,6.9,33,0.00,CLR,,0.00,WeatherDisplay:10.37,2013-05-12 22:18:00,
2013-05-12 17:23:00,55.0,27.1,30.09,NNW,328,4.6,11.5,34,0.00,CLR,,0.00,WeatherDisplay:10.37,2013-05-12 22:23:00,
2013-05-12 17:28:00,55.0,28.5,30.09,NW,317,2.3,7.0,36,0.00,CLR,,0.00,WeatherDisplay:10.37,2013-05-12 22:28:00,
2013-05-12 17:33:00,55.0,27.1,30.09,WNW,284,2.6,5.0,34,0.00,CLR,,0.00,WeatherDisplay:10.37,2013-05-12 22:33:00,
2013-05-12 17:38:00,55.0,27.1,30.09,NW,305,4.7,8.1,34,0.00,CLR,,0.00,WeatherDisplay:10.37,2013-05-12 22:38:00,
2013-05-12 17:43:00,54.7,26.8,30.09,WSW,252,4.8,8.1,34,0.00,CLR,,0.00,WeatherDisplay:10.37,2013-05-12 22:43:00,
2013-05-12 17:48:00,54.8,26.9,30.09,West,281,4.7,8.1,34,0.00,CLR,,0.00,WeatherDisplay:10.37,2013-05-12 22:48:00,
2013-05-12 17:53:00,54.7,27.6,30.09,WNW,290,4.7,8.1,35,0.00,CLR,,0.00,WeatherDisplay:10.37,2013-05-12 22:53:00,
2013-05-12 17:58:00,54.5,28.7,30.09,West,267,3.4,5.8,37,0.00,CLR,,0.00,WeatherDisplay:10.37,2013-05-12 22:58:00,
2013-05-12 18:03:00,54.2,29.1,30.09,WNW,288,3.1,9.2,38,0.00,CLR,,0.00,WeatherDisplay:10.37,2013-05-12 23:03:00,
2013-05-12 18:08:00,54.3,27.2,30.09,WNW,298,6.8,11.5,35,0.00,CLR,,0.00,WeatherDisplay:10.37,2013-05-12 23:08:00,
2013-05-12 18:13:00,54.4,28.0,30.09,NW,321,3.8,6.0,36,0.00,CLR,,0.00,WeatherDisplay:10.37,2013-05-12 23:13:00,
2013-05-12 18:18:00,54.3,27.2,30.09,WNW,290,3.7,9.2,35,0.00,CLR,,0.00,WeatherDisplay:10.37,2013-05-12 23:18:00,
2013-05-12 18:23:00,54.1,27.0,30.09,NW,321,2.9,6.9,35,0.00,CLR,,0.00,WeatherDisplay:10.37,2013-05-12 23:23:00,
2013-05-12 18:28:00,54.1,27.0,30.08,WNW,286,1.5,8.1,35,0.00,CLR,,0.00,WeatherDisplay:10.37,2013-05-12 23:28:00,
2013-05-12 18:33:00,54.2,27.8,30.08,NNW,331,4.7,5.0,36,0.00,CLR,,0.00,WeatherDisplay:10.37,2013-05-12 23:33:00,
2013-05-12 18:38:00,54.0,28.3,30.08,WNW,302,1.9,4.6,37,0.00,CLR,,0.00,WeatherDisplay:10.37,2013-05-12 23:38:00,
2013-05-12 18:43:00,53.9,27.5,30.08,NW,305,4.5,10.4,36,0.00,CLR,,0.00,WeatherDisplay:10.37,2013-05-12 23:43:00,
2013-05-12 18:48:00,53.7,26.7,30.08,WNW,286,5.1,11.5,35,0.00,CLR,,0.00,WeatherDisplay:10.37,2013-05-12 23:48:00,
2013-05-12 18:53:00,53.6,26.6,30.08,WNW,294,5.4,11.5,35,0.00,CLR,,0.00,WeatherDisplay:10.37,2013-05-12 23:53:00,
2013-05-12 18:58:00,53.4,26.4,30.08,West,281,3.3,4.6,35,0.00,CLR,,0.00,WeatherDisplay:10.37,2013-05-12 23:58:00,
2013-05-12 19:03:00,53.3,26.3,30.09,WNW,301,3.5,8.1,35,0.00,CLR,,0.00,WeatherDisplay:10.37,2013-05-13 00:03:00,
2013-05-12 19:08:00,53.2,26.9,30.09,NW,326,2.6,3.5,36,0.00,CLR,,0.00,WeatherDisplay:10.37,2013-05-13 00:08:00,
2013-05-12 19:13:00,53.0,26.7,30.09,NW,325,0.3,3.5,36,0.00,CLR,,0.00,WeatherDisplay:10.37,2013-05-13 00:13:00,
2013-05-12 19:18:00,52.9,26.6,30.09,West,274,1.9,3.5,36,0.00,CLR,,0.00,WeatherDisplay:10.37,2013-05-13 00:18:00,
2013-05-12 19:23:00,52.7,26.5,30.09,West,271,1.7,3.5,36,0.00,CLR,,0.00,WeatherDisplay:10.37,2013-05-13 00:23:00,
2013-05-12 19:28:00,52.5,25.6,30.09,WNW,290,3.8,3.8,35,0.00,CLR,,0.00,WeatherDisplay:10.37,2013-05-13 00:28:00,
2013-05-12 19:33:00,52.4,26.2,30.09,NW,317,3.4,5.0,36,0.00,CLR,,0.00,WeatherDisplay:10.37,2013-05-13 00:33:00,
2013-05-12 19:38:00,52.1,26.6,30.09,NW,308,1.4,3.5,37,0.00,CLR,,0.00,WeatherDisplay:10.37,2013-05-13 00:38:00,
2013-05-12 19:43:00,51.9,26.4,30.09,WNW,292,2.3,3.5,37,0.00,CLR,,0.00,WeatherDisplay:10.37,2013-05-13 00:43:00,
2013-05-12 19:48:00,51.6,26.1,30.09,WNW,292,0.1,1.2,37,0.00,CLR,,0.00,WeatherDisplay:10.37,2013-05-13 00:48:00,
2013-05-12 19:53:00,51.0,26.9,30.09,West,278,1.2,3.5,39,0.00,CLR,,0.00,WeatherDisplay:10.37,2013-05-13 00:53:00,
2013-05-12 19:58:00,50.7,27.2,30.09,WNW,288,2.3,4.6,40,0.00,CLR,,0.00,WeatherDisplay:10.37,2013-05-13 00:58:00,
2013-05-12 20:03:00,50.5,27.0,30.09,WNW,295,0.1,3.5,40,0.00,CLR,,0.00,WeatherDisplay:10.37,2013-05-13 01:03:00,
2013-05-12 20:08:00,50.4,26.3,30.10,WNW,284,2.0,3.5,39,0.00,CLR,,0.00,WeatherDisplay:10.37,2013-05-13 01:08:00,
2013-05-12 20:13:00,50.4,27.0,30.10,West,261,1.3,3.5,40,0.00,CLR,,0.00,WeatherDisplay:10.37,2013-05-13 01:13:00,
2013-05-12 20:18:00,50.0,27.8,30.10,West,271,0.1,1.2,42,0.00,CLR,,0.00,WeatherDisplay:10.37,2013-05-13 01:18:00,
2013-05-12 20:23:00,49.2,28.2,30.10,West,271,0.2,2.3,44,0.00,CLR,,0.00,WeatherDisplay:10.37,2013-05-13 01:23:00,
2013-05-12 20:28:00,48.3,28.5,30.10,West,271,0.0,0.0,46,0.00,CLR,,0.00,WeatherDisplay:10.37,2013-05-13 01:28:00,
2013-05-12 20:33:00,47.5,28.8,30.10,West,271,0.0,1.2,48,0.00,CLR,,0.00,WeatherDisplay:10.37,2013-05-13 01:33:00,
2013-05-12 20:38:00,47.1,28.4,30.10,West,271,0.0,0.0,48,0.00,CLR,,0.00,WeatherDisplay:10.37,2013-05-13 01:38:00,
2013-05-12 20:43:00,46.7,28.5,30.10,West,271,0.0,0.0,49,0.00,CLR,,0.00,WeatherDisplay:10.37,2013-05-13 01:43:00,
2013-05-12 20:48:00,46.4,28.8,30.11,West,271,0.0,0.0,50,0.00,CLR,,0.00,WeatherDisplay:10.37,2013-05-13 01:48:00,
2013-05-12 20:53:00,46.0,28.9,30.11,West,271,0.0,0.0,51,0.00,CLR,,0.00,WeatherDisplay:10.37,2013-05-13 01:53:00,
2013-05-12 20:58:00,45.8,28.7,30.11,West,271,0.0,0.0,51,0.00,CLR,,0.00,WeatherDisplay:10.37,2013-05-13 01:58:00,
2013-05-12 21:03:00,45.6,28.5,30.11,West,271,0.0,0.0,51,0.00,CLR,,0.00,WeatherDisplay:10.37,2013-05-13 02:03:00,
2013-05-12 21:08:00,45.4,28.8,30.11,West,271,0.0,0.0,52,0.00,CLR,,0.00,WeatherDisplay:10.37,2013-05-13 02:08:00,
2013-05-12 21:13:00,45.2,28.6,30.12,West,271,0.0,0.0,52,0.00,CLR,,0.00,WeatherDisplay:10.37,2013-05-13 02:13:00,
2013-05-12 21:18:00,45.0,28.9,30.12,West,271,0.0,1.2,53,0.00,CLR,,0.00,WeatherDisplay:10.37,2013-05-13 02:18:00,
2013-05-12 21:23:00,45.0,28.9,30.12,West,271,0.0,0.0,53,0.00,CLR,,0.00,WeatherDisplay:10.37,2013-05-13 02:23:00,
2013-05-12 21:28:00,44.6,29.0,30.12,West,271,0.0,0.0,54,0.00,CLR,,0.00,WeatherDisplay:10.37,2013-05-13 02:28:00,
2013-05-12 21:33:00,44.5,28.9,30.12,West,271,0.0,0.0,54,0.00,CLR,,0.00,WeatherDisplay:10.37,2013-05-13 02:33:00,
2013-05-12 21:38:00,44.5,28.9,30.12,West,271,0.0,0.0,54,0.00,CLR,,0.00,WeatherDisplay:10.37,2013-05-13 02:38:00,
2013-05-12 21:43:00,44.3,29.1,30.12,West,271,0.0,0.0,55,0.00,CLR,,0.00,WeatherDisplay:10.37,2013-05-13 02:43:00,
2013-05-12 21:48:00,43.8,29.1,30.12,West,271,0.0,0.0,56,0.00,CLR,,0.00,WeatherDisplay:10.37,2013-05-13 02:48:00,
2013-05-12 21:53:00,43.6,28.9,30.12,West,271,0.0,0.0,56,0.00,CLR,,0.00,WeatherDisplay:10.37,2013-05-13 02:53:00,
2013-05-12 21:58:00,44.5,28.9,30.12,West,271,0.0,0.0,54,0.00,CLR,,0.00,WeatherDisplay:10.37,2013-05-13 02:58:00,
2013-05-12 22:03:00,44.4,28.8,30.12,West,271,0.0,1.2,54,0.00,CLR,,0.00,WeatherDisplay:10.37,2013-05-13 03:03:00,
2013-05-12 22:08:00,44.6,29.0,30.13,West,271,0.1,0.0,54,0.00,CLR,,0.00,WeatherDisplay:10.37,2013-05-13 03:08:00,
2013-05-12 22:13:00,44.2,29.0,30.13,West,271,0.0,0.0,55,0.00,CLR,,0.00,WeatherDisplay:10.37,2013-05-13 03:13:00,
2013-05-12 22:18:00,44.5,28.9,30.13,West,271,0.0,0.0,54,0.00,CLR,,0.00,WeatherDisplay:10.37,2013-05-13 03:18:00,
2013-05-12 22:23:00,44.5,29.3,30.13,West,271,0.0,0.0,55,0.00,CLR,,0.00,WeatherDisplay:10.37,2013-05-13 03:23:00,
2013-05-12 22:28:00,44.5,28.9,30.13,West,271,0.0,1.2,54,0.00,CLR,,0.00,WeatherDisplay:10.37,2013-05-13 03:28:00,
2013-05-12 22:33:00,44.2,29.0,30.12,West,271,0.0,0.0,55,0.00,CLR,,0.00,WeatherDisplay:10.37,2013-05-13 03:33:00,
2013-05-12 22:38:00,44.5,28.9,30.12,West,271,0.0,1.2,54,0.00,CLR,,0.00,WeatherDisplay:10.37,2013-05-13 03:38:00,
2013-05-12 22:43:00,44.5,29.3,30.12,West,271,0.0,0.0,55,0.00,CLR,,0.00,WeatherDisplay:10.37,2013-05-13 03:43:00,
2013-05-12 22:48:00,44.1,29.4,30.12,West,271,0.0,0.0,56,0.00,CLR,,0.00,WeatherDisplay:10.37,2013-05-13 03:48:00,
2013-05-12 22:53:00,43.8,29.1,30.12,West,271,0.1,1.2,56,0.00,CLR,,0.00,WeatherDisplay:10.37,2013-05-13 03:53:00,
2013-05-12 22:58:00,43.6,29.4,30.12,West,271,0.0,0.0,57,0.00,CLR,,0.00,WeatherDisplay:10.37,2013-05-13 03:58:00,
2013-05-12 23:01:00,43.5,29.3,30.12,West,271,0.0,0.0,57,0.00,CLR,,0.00,WeatherDisplay:10.37,2013-05-13 04:01:00,
2013-05-12 23:02:00,43.4,29.2,30.12,West,271,0.3,1.2,57,0.00,CLR,,0.00,WeatherDisplay:10.37,2013-05-13 04:02:00,
2013-05-12 23:03:00,43.5,29.3,30.12,West,271,0.4,1.2,57,0.00,CLR,,0.00,WeatherDisplay:10.37,2013-05-13 04:03:00,
2013-05-12 23:08:00,43.3,29.5,30.12,West,271,0.0,0.0,58,0.00,CLR,,0.00,WeatherDisplay:10.37,2013-05-13 04:08:00,
2013-05-12 23:13:00,43.0,29.6,30.12,West,271,0.0,1.0,59,0.00,CLR,,0.00,WeatherDisplay:10.37,2013-05-13 04:13:00,
2013-05-12 23:18:00,42.8,29.5,30.12,West,271,0.1,1.2,59,0.00,CLR,,0.00,WeatherDisplay:10.37,2013-05-13 04:18:00,
2013-05-12 23:23:00,43.1,29.3,30.12,West,271,0.4,1.2,58,0.00,CLR,,0.00,WeatherDisplay:10.37,2013-05-13 04:23:00,
2013-05-12 23:28:00,43.3,29.1,30.12,West,271,0.0,1.2,57,0.00,CLR,,0.00,WeatherDisplay:10.37,2013-05-13 04:28:00,
2013-05-12 23:33:00,43.5,29.3,30.12,West,271,0.2,2.3,57,0.00,CLR,,0.00,WeatherDisplay:10.37,2013-05-13 04:33:00,
2013-05-12 23:38:00,43.2,29.0,30.12,West,271,0.3,1.2,57,0.00,CLR,,0.00,WeatherDisplay:10.37,2013-05-13 04:38:00,
2013-05-12 23:43:00,43.4,29.2,30.12,West,269,0.8,1.2,57,0.00,CLR,,0.00,WeatherDisplay:10.37,2013-05-13 04:43:00,
2013-05-12 23:48:00,43.0,29.2,30.12,West,265,0.8,2.3,58,0.00,CLR,,0.00,WeatherDisplay:10.37,2013-05-13 04:48:00,
2013-05-12 23:53:00,42.8,29.5,30.12,West,264,1.3,2.3,59,0.00,CLR,,0.00,WeatherDisplay:10.37,2013-05-13 04:53:00,
2013-05-12 23:58:00,42.4,29.5,30.12,West,264,0.0,1.2,60,0.00,CLR,,0.00,WeatherDisplay:10.37,2013-05-13 04:58:00,